EW3122 Weather Reports


time (UTC)temp
F
wind
direction
speed
knots
gust
knots
rain 1hr
in
rain 24hr
in
rain mn
in
humidity
%
barometer
mb
20260906154540 74 144 2.6 7.8 0.00 0.00 0.00 69 1018.1
20260906153042 74 110 0.9 7.0 0.00 0.00 0.00 70 1018.3
20260906151534 73 111 3.5 7.8 0.00 0.00 0.00 72 1018.2
20260906150034 73 115 3.5 8.7 0.00 0.00 0.00 74 1017.8
20260906144527 72 107 3.5 7.0 0.00 0.00 0.00 76 1018.0
20260906143025 71 128 3.5 7.0 0.00 0.00 0.00 78 1018.1
20260906141523 70 90 0.0 6.1 0.00 0.00 0.00 81 1018.1
20260906140018 70 22 1.7 5.2 0.00 0.00 0.00 85 1017.9
20260906134513 68 112 0.0 6.1 0.00 0.00 0.00 90 1017.9
20260906133009 67 113 2.6 7.0 0.00 0.00 0.00 94 1017.7
20260906131505 65 106 0.9 3.5 0.00 0.00 0.00 96 1017.7
20260906130003 64 128 0.0 0.0 0.00 0.00 0.00 97 1017.8
20260906124601 64 16 0.0 0.0 0.00 0.00 0.00 97 1017.5
20260906123058 63 16 0.0 0.0 0.00 0.00 0.00 97 1017.4
20260906121556 62 16 0.0 0.0 0.00 0.00 0.00 97 1017.1
20260906120052 62 16 0.0 0.0 0.00 0.00 0.00 96 1017.0
20260906114550 62 16 0.0 0.0 0.00 0.00 0.00 96 1016.7
20260906113045 61 16 0.0 0.0 0.00 0.00 0.00 96 1016.6
20260906111601 61 16 0.0 0.0 0.00 0.00 0.00 96 1016.4
20260906110041 62 16 0.0 0.0 0.00 0.00 0.00 96 1016.2
20260906104541 62 16 0.0 1.7 0.00 0.00 0.00 96 1016.2
20260906103039 62 47 0.0 2.6 0.00 0.00 0.00 96 1016.1
20260906101543 62 22 0.0 0.0 0.00 0.00 0.00 96 1016.1
20260906100042 62 38 0.0 0.0 0.00 0.00 0.00 95 1016.2
20260906094536 62 38 0.0 0.0 0.00 0.00 0.00 95 1016.0
20260906093038 62 34 0.0 0.0 0.00 0.00 0.00 95 1015.9
20260906091535 62 15 0.0 0.0 0.00 0.00 0.00 95 1015.9
20260906090033 62 15 0.0 0.0 0.00 0.00 0.00 95 1015.7
20260906084533 63 5 0.9 3.5 0.00 0.00 0.00 95 1015.6
20260906083032 62 17 0.9 3.5 0.00 0.00 0.00 95 1015.7
20260906081530 62 360 1.7 3.5 0.00 0.00 0.00 95 1015.7
20260906080028 62 342 1.7 4.3 0.00 0.00 0.00 95 1015.8
20260906074527 62 348 1.7 2.6 0.00 0.00 0.00 94 1015.7
20260906073028 62 350 1.7 4.3 0.00 0.00 0.00 94 1015.5
20260906071522 63 343 1.7 3.5 0.00 0.00 0.00 94 1015.3
20260906070021 63 346 0.0 0.0 0.00 0.00 0.00 94 1015.4
20260906064520 63 346 0.0 2.6 0.00 0.00 0.00 94 1015.2
20260906063019 63 343 0.0 2.6 0.00 0.00 0.00 94 1015.3
20260906061517 63 355 0.0 0.0 0.00 0.00 0.00 93 1015.3
20260906060025 63 355 0.0 0.0 0.00 0.00 0.00 93 1015.2
20260906054526 64 11 0.0 0.0 0.00 0.00 0.00 93 1015.1
20260906053013 64 11 0.0 2.6 0.00 0.00 0.00 92 1015.0
20260906051512 64 16 0.0 2.6 0.00 0.00 0.00 92 1015.0
20260906050010 64 26 1.7 4.3 0.00 0.00 0.00 92 1015.0
20260906044509 64 5 1.7 4.3 0.00 0.00 0.00 92 1015.1
20260906043014 64 5 2.6 5.2 0.00 0.00 0.00 92 1015.0
20260906041506 64 21 2.6 4.3 0.00 0.00 0.00 92 1014.8
20260906040009 64 11 2.6 5.2 0.00 0.00 0.00 91 1014.7
20260906034507 64 22 2.6 4.3 0.00 0.00 0.00 91 1014.7
20260906033012 64 17 2.6 4.3 0.00 0.00 0.00 90 1014.7
20260906031505 64 22 2.6 4.3 0.00 0.00 0.00 90 1014.7
20260906030001 64 33 1.7 4.3 0.00 0.00 0.00 89 1014.7
20260906024613 65 27 2.6 4.3 0.00 0.00 0.00 89 1014.6
20260906023103 65 22 2.6 4.3 0.00 0.00 0.00 90 1014.6
20260906021557 65 19 2.6 4.3 0.00 0.00 0.00 91 1014.5
20260906020055 66 16 1.7 5.2 0.00 0.00 0.00 91 1014.5
20260906014552 66 21 1.7 4.3 0.00 0.00 0.00 90 1014.4
20260906013050 66 61 0.9 3.5 0.00 0.00 0.00 89 1014.2
20260906011548 67 49 0.0 0.0 0.00 0.00 0.00 88 1014.3
20260906010046 68 131 0.0 0.0 0.00 0.00 0.00 87 1014.3
20260906004544 68 38 0.0 0.0 0.00 0.00 0.00 87 1014.1
20260906003042 69 38 0.0 0.0 0.00 0.00 0.00 86 1014.1
20260906001542 69 34 0.0 2.6 0.00 0.00 0.00 85 1014.0
20260906000041 70 44 0.9 3.5 0.00 0.00 0.00 84 1014.0
20260905234541 71 41 0.9 4.3 0.00 0.00 0.00 83 1014.1
20260905233044 72 38 0.9 7.0 0.00 0.00 0.00 83 1014.2
20260905231538 72 84 0.9 7.0 0.00 0.00 0.00 82 1014.2
20260905230036 73 57 1.7 6.1 0.00 0.00 0.00 81 1013.9
20260905224606 73 119 0.9 3.5 0.00 0.00 0.00 82 1013.8
20260905223037 73 360 0.9 8.7 0.00 0.00 0.00 83 1013.7
20260905221530 73 146 2.6 9.6 0.00 0.00 0.00 84 1013.5
20260905220028 72 12 0.9 5.2 0.00 0.00 0.00 86 1013.9
20260905214527 71 9 0.9 7.8 0.00 0.00 0.00 87 1013.7
20260905213027 71 38 3.5 7.8 0.00 0.00 0.00 87 1013.9
20260905211540 70 19 2.6 4.3 0.00 0.00 0.00 88 1013.8
20260905210039 70 53 0.9 8.7 0.00 0.00 0.00 88 1013.9
20260905204524 70 360 0.0 5.2 0.00 0.00 0.00 88 1013.9
20260905203023 71 44 1.7 4.3 0.00 0.00 0.00 88 1013.8
20260905201523 71 98 1.7 5.2 0.00 0.00 0.00 88 1013.7
20260905200026 71 59 1.7 5.2 0.00 0.00 0.00 88 1013.5
20260905194521 71 5 1.7 5.2 0.00 0.00 0.00 88 1013.6
20260905193020 71 54 0.9 7.8 0.00 0.00 0.00 88 1013.7
20260905191520 72 27 2.6 5.2 0.00 0.00 0.00 87 1013.7
20260905190019 72 39 1.7 8.7 0.00 0.00 0.00 87 1013.7
20260905184527 72 39 1.7 6.1 0.00 0.00 0.00 87 1013.7
20260905183017 72 70 1.7 7.8 0.00 0.00 0.00 88 1013.9
20260905181517 71 41 3.5 12.2 0.00 0.00 0.00 89 1013.8
20260905180014 71 16 1.7 7.8 0.00 0.00 0.00 90 1013.8
20260905174511 71 351 3.5 7.8 0.00 0.00 0.00 92 1013.8
20260905173010 70 18 1.7 7.8 0.00 0.00 0.00 94 1013.6
20260905171508 70 53 2.6 8.7 0.00 0.00 0.00 95 1013.7
20260905170006 69 54 4.3 10.4 0.00 0.00 0.00 95 1013.7
20260905164510 69 34 3.5 8.7 0.00 0.00 0.00 96 1013.6
20260905163004 69 360 1.7 8.7 0.00 0.00 0.00 96 1013.8
20260905161505 69 18 2.6 7.0 0.00 0.00 0.00 96 1013.5
20260905160001 69 89 1.7 5.2 0.00 0.00 0.00 96 1013.4